Weather History for Little Rock AFB, AR

Change the Weather History Date:

Saturday, November 17, 2012

  Actual Average Record
Temperature  
Mean Temperature 45 °F -  
Max Temperature 62 °F 60 °F 84 °F (2013)
Min Temperature 28 °F 38 °F 19 °F (1989)
Degree Days  
Heating Degree Days 20    
Moisture  
Dew Point 29 °F    
Average Humidity 66    
Maximum Humidity 88    
Minimum Humidity 26    
Precipitation  
Precipitation 0.00 in - - ()
Sea Level Pressure  
Sea Level Pressure 30.41 in    
Wind  
Wind Speed 2 mph (NE)    
Max Wind Speed 6 mph    
Max Gust Speed -    
Visibility 10 miles    
Events      
Averages and records for this station are not official NWS values.
T = Trace of Precipitation, MM = Missing Value Source: NWS Daily Summary

Daily Weather History Graph

Daily Weather History Graph

Search for Another Location

Airport:

Trip Planner

Search our weather history database for the weather conditions in past years. The results will help you decide how hot, cold, wet, or windy it might be!

Date:

Astronomy

Nov. 17, 2012 Rise Set
Actual Time 6:45 AM CST 5:01 PM CST
Civil Twilight 6:18 AM CST 5:28 PM CST
Nautical Twilight 5:47 AM CST 5:59 PM CST
Astronomical Twilight 5:17 AM CST 6:29 PM CST
Moon 10:30 AM CST (11/17) 9:11 PM CST (11/17)
Length of Visible Light 11h 10m
Length of Day
10h 16m
Waxing Crescent, 20% of the Moon is Illuminated
Nov 17
Waxing Crescent
Nov 20
First Quarter
Nov 28
Full
Dec 6
Last Quarter
Dec 13
New

Hourly Weather History & Observations

Time (CST) Temp. Windchill Dew Point Humidity Pressure Visibility Wind Dir Wind Speed Gust Speed Precip Events Conditions
12:55 AM 32.7 °F - 28.8 °F 85% 30.42 in 10.0 mi Calm Calm - N/A   Clear
1:55 AM 31.6 °F 28.3 °F 27.3 °F 84% 30.42 in 10.0 mi West 3.5 mph - N/A   Clear
2:55 AM 30.6 °F 27.1 °F 26.8 °F 86% 30.42 in 10.0 mi WSW 3.5 mph - N/A   Clear
3:55 AM 29.8 °F - 26.1 °F 86% 30.42 in 10.0 mi Calm Calm - N/A   Clear
4:55 AM 29.5 °F - 25.7 °F 86% 30.43 in 10.0 mi Calm Calm - N/A   Clear
5:55 AM 28.8 °F 22.6 °F 25.7 °F 88% 30.44 in 10.0 mi WSW 5.8 mph - N/A   Clear
6:55 AM 28.4 °F - 25.0 °F 87% 30.45 in 10.0 mi Calm Calm - N/A   Clear
7:55 AM 34.5 °F - 31.1 °F 87% 30.46 in 10.0 mi Calm Calm - N/A   Clear
8:55 AM 46.0 °F 43.1 °F 34.0 °F 63% 30.48 in 10.0 mi NE 5.8 mph - N/A   Clear
9:55 AM 49.8 °F - 32.4 °F 51% 30.48 in 10.0 mi NNE 3.5 mph - N/A   Clear
10:55 AM 54.3 °F - 31.8 °F 42% 30.47 in 10.0 mi Calm Calm - N/A   Clear
11:55 AM 56.8 °F - 31.3 °F 38% 30.45 in 10.0 mi NNE 4.6 mph - N/A   Clear
12:55 PM 60.4 °F - 28.4 °F 30% 30.41 in 10.0 mi East 4.6 mph - N/A   Clear
1:55 PM 61.7 °F - 27.0 °F 27% 30.39 in 10.0 mi ESE 4.6 mph - N/A   Clear
2:55 PM 62.4 °F - 28.2 °F 27% 30.38 in 10.0 mi Variable 3.5 mph - N/A   Clear
3:55 PM 62.1 °F - 26.8 °F 26% 30.38 in 10.0 mi ENE 4.6 mph - N/A   Clear
4:55 PM 55.6 °F - 29.8 °F 37% 30.36 in 10.0 mi Calm Calm - N/A   Clear
5:55 PM 44.1 °F - 34.9 °F 70% 30.36 in 10.0 mi Calm Calm - N/A   Clear
6:55 PM 40.1 °F - 33.1 °F 76% 30.38 in 10.0 mi Calm Calm - N/A   Clear
7:55 PM 38.1 °F - 30.9 °F 75% 30.39 in 10.0 mi Calm Calm - N/A   Clear
8:55 PM 35.6 °F - 31.3 °F 84% 30.40 in 10.0 mi Calm Calm - N/A   Clear
9:55 PM 33.3 °F - 29.3 °F 85% 30.39 in 10.0 mi Calm Calm - N/A   Clear
10:55 PM 33.4 °F - 29.7 °F 86% 30.38 in 10.0 mi Calm Calm - N/A   Clear
11:55 PM 32.7 °F - 29.5 °F 88% 30.39 in 10.0 mi Calm Calm - N/A   Clear